Ellensburg, WA
on Sunday, December 16, 2012

Sunday
Previous Day Next Day
Daily Summary
 ActualAverage (KYKM)Record (KYKM)
Temperature
Mean Temperature °F 28°F  
Max Temperature 35°F 35°F 62°F (1999)
Min Temperature 15°F 21°F -15°F (1964)
Degree Days
Heating Degree Days 40 37  
Month to date heating degree days 569  
Since 1 July heating degree days 2102  
Cooling Degree Days 0 0  
Month to date cooling degree days 0  
Year to date cooling degree days 472  
Moisture
Dew Point 23°F   
Average Humidity 83    
Maximum Humidity 87    
Minimum Humidity 78    
Precipitation
Precipitation 0.38 in 0.05 in 0.58 in (2012)
Month to date precipitation 0.77  
Year to date precipitation 7.49  
Snow
Snow 0.00 in 0.30 in 6.20 in (2012)
Month to date snowfall 4.7  
Year to date snowfall 16.9  
Since 1 July snowfall 8.3  
Snow Depth in   
Wind
Wind Speed 2 mph   
Max Wind Speed 15 mph   
Max Gust Speed mph   
Visibility 5 miles   
Events Snow   

Key: T is trace of precipitation, MM is missing value
Source: NWS Daily Summary
Time(PST)TemperatureDew PointHumidity Pressure Visibility Wind DirectionWind SpeedGust SpeedPrecipitationEvents Conditions
12:03 AM 17.6°F 12.2°F 79% 29.64 in 0.8 miles Calm Calm - N/A   Mist
12:12 AM 15.8°F 12.2°F 86% 29.64 in 0.8 miles Calm Calm - N/A   Clear
12:15 AM 17.6°F 12.2°F 79% 29.64 in 1.5 miles Calm Calm - N/A   Haze
12:18 AM 17.6°F 12.2°F 79% 29.64 in 3.0 miles Calm Calm - N/A   Haze
12:53 AM 16.0°F 12.0°F 84% 29.72 in 10.0 miles Calm Calm - N/A   Clear
2:53 AM 17.1°F 12.0°F 81% 29.75 in 10.0 miles Calm Calm - N/A   Clear
3:46 AM 17.6°F 12.2°F 79% 29.68 in 10.0 miles Calm Calm - N/A   Overcast
3:53 AM 18.0°F 12.9°F 81% 29.75 in 10.0 miles Calm Calm - N/A   Overcast
4:53 AM 18.0°F 12.9°F 81% 29.75 in 10.0 miles NE 4.6 mph - N/A   Overcast
5:53 AM 18.0°F 12.9°F 81% 29.77 in 10.0 miles SW 3.5 mph - N/A   Partly Cloudy
6:53 AM 19.0°F 14.0°F 81% 29.77 in 10.0 miles NNW 3.5 mph - N/A   Overcast
7:16 AM 17.6°F 12.2°F 79% 29.71 in 10.0 miles Calm Calm - N/A   Overcast
7:18 AM 17.6°F 12.2°F 79% 29.71 in 10.0 miles Calm Calm - N/A   Overcast
7:25 AM 19.4°F 14.0°F 80% 29.72 in 10.0 miles Calm Calm - N/A   Overcast
7:41 AM 21.2°F 15.8°F 80% 29.72 in 4.0 miles Calm Calm - N/A   Haze
7:44 AM 21.2°F 17.6°F 86% 29.72 in 2.5 miles Calm Calm - N/A   Overcast
7:53 AM 21.9°F 17.1°F 82% 29.78 in 5.0 miles Calm Calm - N/A   Haze
8:05 AM 23.0°F 17.6°F 80% 29.72 in 9.0 miles Calm Calm - N/A   Overcast
8:53 AM 23.0°F 19.0°F 85% 29.78 in 10.0 miles Calm Calm - N/A   Overcast
9:53 AM 21.9°F 18.0°F 85% 29.77 in 5.0 miles Calm Calm - N/A   Overcast
10:53 AM 25.0°F 21.0°F 85% 29.77 in 8.0 miles Calm Calm - N/A   Overcast
11:48 AM 26.6°F 21.2°F 80% 29.67 in 8.0 miles Calm Calm - N/A   Overcast
11:53 AM 27.0°F 21.9°F 81% 29.73 in 7.0 miles Calm Calm - N/A   Overcast
12:53 PM 28.0°F 21.9°F 78% 29.70 in 6.0 miles Calm Calm - N/A   Haze
1:53 PM 28.0°F 23.0°F 81% 29.65 in 9.0 miles Calm Calm - N/A   Unknown
2:09 PM 28.4°F 23.0°F 80% 29.57 in 7.0 miles Calm Calm - N/A   Overcast
2:53 PM 28.0°F 23.0°F 81% 29.61 in 5.0 miles Calm Calm - 0.00 in   Haze
3:53 PM 28.9°F 24.1°F 82% 29.55 in 3.0 miles South 3.5 mph - 0.00 in Snow Light Snow
4:03 PM 28.4°F 24.8°F 86% 29.48 in 2.0 miles Calm Calm - 0.00 in Snow Light Snow
4:17 PM 28.4°F 24.8°F 86% 29.46 in 3.0 miles Calm Calm - 0.00 in Snow Light Snow
4:26 PM 28.4°F 24.8°F 86% 29.45 in 1.8 miles Calm Calm - 0.00 in Snow Light Snow
4:46 PM 30.2°F 24.8°F 80% 29.42 in 1.0 miles East 3.5 mph - 0.02 in Snow Light Snow
4:53 PM 30.9°F 27.0°F 85% 29.47 in 1.0 miles East 8.1 mph - 0.02 in Snow Light Snow
5:08 PM 30.2°F 26.6°F 86% 29.42 in 0.8 miles SW 5.8 mph - 0.02 in Snow Light Snow
5:53 PM 32.0°F 28.0°F 85% 29.43 in 1.0 miles East 9.2 mph - 0.12 in Snow Light Snow
6:04 PM 33.8°F 30.2°F 87% 29.37 in 0.8 miles East 9.2 mph - 0.02 in Snow Light Snow
6:13 PM 33.8°F 30.2°F 87% 29.36 in 0.8 miles East 9.2 mph - 0.03 in Snow Light Snow
6:33 PM 33.8°F 30.2°F 87% 29.31 in 1.0 miles East 13.8 mph - 0.06 in Snow Light Snow
6:43 PM 35.6°F 30.2°F 81% 29.29 in 1.5 miles East 15.0 mph - 0.06 in Snow Light Snow
6:50 PM 35.6°F 30.2°F 81% 29.28 in 2.5 miles East 13.8 mph - 0.07 in Snow Light Snow
6:53 PM 35.1°F 30.9°F 85% 29.33 in 3.0 miles East 15.0 mph - 0.07 in Snow Light Snow
7:07 PM 35.6°F 30.2°F 81% 29.27 in 5.0 miles East 9.2 mph - 0.01 in Snow Light Snow
7:32 PM 33.8°F 30.2°F 87% 29.25 in 1.8 miles SSW 4.6 mph - 0.02 in Snow Light Snow
7:37 PM 33.8°F 30.2°F 87% 29.25 in 1.2 miles South 3.5 mph - 0.03 in Snow Light Snow
7:53 PM 33.1°F 28.9°F 85% 29.27 in 0.8 miles SE 3.5 mph - 0.05 in Snow Light Snow
8:03 PM 33.8°F 30.2°F 87% 29.20 in 1.0 miles ESE 9.2 mph - 0.02 in Snow Light Snow
8:20 PM 33.8°F 30.2°F 87% 29.20 in 1.2 miles ESE 8.1 mph - 0.04 in Snow Light Snow
8:29 PM 35.6°F 30.2°F 81% 29.19 in 2.0 miles East 8.1 mph - 0.04 in Snow Light Snow
8:53 PM 35.1°F 30.9°F 85% 29.25 in 1.5 miles Calm Calm - 0.06 in Snow Light Snow
9:05 PM 35.6°F 30.2°F 81% 29.18 in 2.0 miles East 3.5 mph - 0.01 in Snow Light Snow
9:10 PM 33.8°F 30.2°F 87% 29.18 in 1.2 miles East 6.9 mph - 0.01 in Snow Light Snow
9:19 PM 33.8°F 30.2°F 87% 29.17 in 1.0 miles East 3.5 mph - 0.03 in Snow Light Snow
9:53 PM 35.1°F 30.9°F 85% 29.19 in 6.0 miles ENE 6.9 mph - 0.05 in Snow Light Snow
10:53 PM 35.1°F 30.9°F 85% 29.16 in 4.0 miles East 8.1 mph - 0.00 in Snow Light Snow
11:53 PM 35.1°F 30.9°F 85% 29.16 in 10.0 miles SE 5.8 mph - 0.01 in   Overcast
Moon Phase
Dec. 16 Dec. 20 Dec. 28 Jan. 04 Jan. 11
Sunrise:07:42 AM (PST) Moon Rise:10:07 AM (PST)12/16
Sunset:04:13 PM (PST) Moon Set:08:47 PM (PST)12/16

Copyright © 2014 The Weather Underground, Inc.